Current Weather Conditions: station 13010

sailwx.info

Wind from 233 at 5 knots

Air temperature 27.5° C

Last reported at 2018-Feb-21 19:00 UTC.
Time now 2018-Feb-21 20:58 UTC

Location: N 00°02' E 000°01'.
View on Google Maps.

See reports from other nearby stations

  
Tides and Currents Weather Stations Pressure Air Temp Water Temp Dewpoint Dewpoint Depression Visibility Wind Speed Wind Dir Waves Ship Positions
date/time (UTC)wind fromknots sea level pressurealtimeterstation pressurevisibilityair tempwater tempwave heightnotes
2018-Feb-21 19:00 233 5 27.5
2018-Feb-21 18:00 190 7 27.3
2018-Feb-21 15:00 246 11 27.6
2018-Feb-21 14:00 245 9 25.7
2018-Feb-21 09:00 208 11 28.4
2018-Feb-21 08:00 205 9 28.4
2018-Feb-21 07:00 197 11 28.3
2018-Feb-21 06:00 195 12 28.4
2018-Feb-21 03:00 199 12 28.2
2018-Feb-20 21:00 176 8 28.4
2018-Feb-20 20:00 166 9 28.4
2018-Feb-20 19:00 169 10 28.4
2018-Feb-20 18:00 168 8 28.4
2018-Feb-20 15:00 160 8 28.4
2018-Feb-20 14:00 169 9 28.5
2018-Feb-20 09:00 195 8 28.3
2018-Feb-20 08:00 199 9 28.3
2018-Feb-20 07:00 193 9 28.0
2018-Feb-20 06:00 181 9 28.0
2018-Feb-19 21:00 171 9 28.5
2018-Feb-19 20:00 168 8 28.5